"Pseudo-MPEC" for P10N6Sw

Created 2019 Apr 22 11:07:06 UT using Find_Orb

Click here for an explanation of pseudo-MPECs

 
 Astrometry: 
     P10N6Sw  C2019 04 09flVkU$h=vfWvKP4CJAstrometry.kqjj1(#T.CFalZ=p[+h1KyaKF51
     P10N6Sw  C2019 04 09$79!HF3l6xu:R]7SUyE6poKU]67w+redacted;;hD=click^FcK9F51
     P10N6Sw  C2019 04 09TIhH%_/Z8Tphere.Iu=aewforxb(m+'dC'Noexplanationt\b*tF51
     P10N6Sw  C2019 04 09Ai)(7LjaHb3_TPBG5I2X*:'%vAZtcIXe+okP0mlf[Q@1MBPT2[HnF51

Station data:
(F51) Pan-STARRS 1, Haleakala  (N20.707235 W156.255910)  US/Hawaii.
   Observers N. Primak, A. Schultz, S. Watters, J. Thiel, T. Goggia. Measurer
   PS1 Science Consortium. 1.8-m Ritchey-Chrétien + CCD.

Orbital elements:  P10N6Sw
   Perihelion 2019 May 20.658081 +/- 39 TT = 15:47:38 (JD 2458624.158081)
Epoch 2019 Apr  9.0 TT = JDT 2458582.5   Earth MOID: 0.0265   AutoNEOCP
M 327.63831027 +/- 23               (J2000 ecliptic)
n   0.77684063 +/- 0.39             Peri.   42.60959 +/- 51
a   1.17196531 +/- 0.392            Node   199.28514 +/- 0.07
e   0.1502042 +/- 0.267             Incl.   11.56747 +/- 10
P   1.27/463.41d           H 27.8   G  0.15   U 12.1  SR
q 0.99593120 +/- 0.129    Q 1.34799943 +/- 34.5
From 4 observations 2019 Apr. 9 (53.1 min); mean residual 0".14
Residuals in arcseconds: 
190409 F51  .07+  .19+    190409 F51  .07-  .11-    
190409 F51  .07-  .23-    190409 F51  .07+  .15+    

Ephemerides (geocentric):
Date (UTC) HH   RA              Dec         delta   r     elong  mag " sig PA
---- -- -- --  -------------   -----------  ------ ------ -----  --- ---- ---
2019 04 22 11  17 23 33.208   +57 29 19.63  .04622 1.0132  98.8 23.9 0.0  101
2019 04 22 12  17 24 18.747   +57 32 42.63  .04636 1.0131  98.6 23.9 0.0  101
2019 04 22 13  17 25 04.155   +57 36 03.42  .04649 1.0131  98.5 23.9 0.0  101
2019 04 22 14  17 25 49.434   +57 39 22.02  .04663 1.0130  98.4 24.0 0.0  101
2019 04 22 15  17 26 34.582   +57 42 38.44  .04676 1.0130  98.3 24.0 0.0  101
2019 04 22 16  17 27 19.599   +57 45 52.70  .04690 1.0129  98.2 24.0 0.0  101
2019 04 22 17  17 28 04.486   +57 49 04.84  .04703 1.0129  98.1 24.0 0.0  101
2019 04 22 18  17 28 49.240   +57 52 14.87  .04717 1.0128  98.0 24.0 0.0  101
2019 04 22 19  17 29 33.863   +57 55 22.80  .04731 1.0128  97.9 24.0 0.0  101
2019 04 22 20  17 30 18.354   +57 58 28.67  .04744 1.0127  97.8 24.0 0.0  100
2019 04 22 21  17 31 02.712   +58 01 32.49  .04758 1.0127  97.7 24.0 0.0  100
2019 04 22 22  17 31 46.938   +58 04 34.28  .04771 1.0126  97.6 24.0 0.0  100
2019 04 22 23  17 32 31.030   +58 07 34.07  .04785 1.0126  97.5 24.0 0.0  100
2019 04 23 00  17 33 14.989   +58 10 31.87  .04799 1.0125  97.4 24.1 0.0  100
2019 04 23 01  17 33 58.815   +58 13 27.70  .04812 1.0125  97.3 24.1 0.0  100
2019 04 23 02  17 34 42.506   +58 16 21.58  .04826 1.0124  97.2 24.1 0.0  100
2019 04 23 03  17 35 26.064   +58 19 13.54  .04840 1.0124  97.1 24.1 0.0  100
2019 04 23 04  17 36 09.487   +58 22 03.59  .04854 1.0123  97.0 24.1 0.0  100
2019 04 23 05  17 36 52.776   +58 24 51.75  .04867 1.0123  96.9 24.1 0.0  100
2019 04 23 06  17 37 35.930   +58 27 38.05  .04881 1.0122  96.8 24.1 0.0  100
2019 04 23 07  17 38 18.949   +58 30 22.49  .04895 1.0122  96.7 24.1 0.0   99
2019 04 23 08  17 39 01.833   +58 33 05.10  .04909 1.0121  96.6 24.1 0.0   99
2019 04 23 09  17 39 44.582   +58 35 45.89  .04923 1.0121  96.5 24.1 0.0   99
2019 04 23 10  17 40 27.195   +58 38 24.90  .04936 1.0120  96.4 24.1 0.0   99
2019 04 23 11  17 41 09.673   +58 41 02.12  .04950 1.0120  96.3 24.2 0.0   99
2019 04 23 12  17 41 52.016   +58 43 37.59  .04964 1.0119  96.2 24.2 0.0   99
2019 04 23 13  17 42 34.222   +58 46 11.32  .04978 1.0119  96.1 24.2 0.0   99
2019 04 23 14  17 43 16.293   +58 48 43.32  .04992 1.0118  96.0 24.2 0.0   99
2019 04 23 15  17 43 58.228   +58 51 13.62  .05006 1.0118  95.9 24.2 0.0   99
2019 04 23 16  17 44 40.026   +58 53 42.23  .05020 1.0117  95.8 24.2 0.0   99
2019 04 23 17  17 45 21.689   +58 56 09.17  .05033 1.0117  95.7 24.2 0.0   99
2019 04 23 18  17 46 03.215   +58 58 34.46  .05047 1.0116  95.6 24.2 0.0   98
2019 04 23 19  17 46 44.606   +59 00 58.11  .05061 1.0116  95.5 24.2 0.0   98
2019 04 23 20  17 47 25.859   +59 03 20.15  .05075 1.0115  95.4 24.2 0.0   98
2019 04 23 21  17 48 06.977   +59 05 40.58  .05089 1.0115  95.3 24.2 0.0   98
2019 04 23 22  17 48 47.958   +59 07 59.42  .05103 1.0115  95.2 24.3 0.0   98
2019 04 23 23  17 49 28.803   +59 10 16.69  .05117 1.0114  95.2 24.3 0.0   98
2019 04 24 00  17 50 09.512   +59 12 32.41  .05131 1.0114  95.1 24.3 0.0   98
2019 04 24 01  17 50 50.084   +59 14 46.60  .05145 1.0113  95.0 24.3 0.0   98
2019 04 24 02  17 51 30.521   +59 16 59.26  .05159 1.0113  94.9 24.3 0.0   98
2019 04 24 03  17 52 10.820   +59 19 10.41  .05173 1.0112  94.8 24.3 0.0   98
2019 04 24 04  17 52 50.984   +59 21 20.07  .05187 1.0112  94.7 24.3 0.0   98
2019 04 24 05  17 53 31.011   +59 23 28.26  .05201 1.0111  94.6 24.3 0.0   98
2019 04 24 06  17 54 10.903   +59 25 34.99  .05215 1.0111  94.5 24.3 0.0   97
2019 04 24 07  17 54 50.658   +59 27 40.27  .05229 1.0110  94.5 24.3 0.0   97
2019 04 24 08  17 55 30.277   +59 29 44.13  .05244 1.0110  94.4 24.3 0.0   97
2019 04 24 09  17 56 09.760   +59 31 46.56  .05258 1.0109  94.3 24.3 0.0   97
2019 04 24 10  17 56 49.108   +59 33 47.60  .05272 1.0109  94.2 24.4 0.0   97